DATE,MABMM301USQ189S
1960-01-01,298633333333.333
1960-04-01,301100000000
1960-07-01,306466666666.667
1960-10-01,310933333333.333
1961-01-01,316300000000
1961-04-01,322133333333.333
1961-07-01,327566666666.667
1961-10-01,333333333333.33295
1962-01-01,340233333333.333
1962-04-01,347433333333.333
1962-07-01,352833333333.33295
1962-10-01,359900000000
1963-01-01,367933333333.333
1963-04-01,375933333333.333
1963-07-01,383566666666.667
1963-10-01,391000000000
1964-01-01,397533333333.333
1964-04-01,404333333333.33295
1964-07-01,413466666666.667
1964-10-01,421933333333.333
1965-01-01,430366666666.667
1965-04-01,437533333333.333
1965-07-01,446066666666.667
1965-10-01,455833333333.33295
1966-01-01,464600000000
1966-04-01,470200000000
1966-07-01,472966666666.667
1966-10-01,477733333333.333
1967-01-01,485466666666.667
1967-04-01,497100000000
1967-07-01,510600000000
1967-10-01,521400000000
1968-01-01,530333333333.333
1968-04-01,539066666666.66693
1968-07-01,549533333333.33295
1968-10-01,562266666666.667
1969-01-01,571866666666.667
1969-04-01,576900000000
1969-07-01,580566666666.667
1969-10-01,585566666666.667
1970-01-01,587733333333.333
1970-04-01,591700000000
1970-07-01,605066666666.667
1970-10-01,621333333333.333
1971-01-01,641266666666.667
1971-04-01,666033333333.334
1971-07-01,685866666666.667
1971-10-01,704433333333.334
1972-01-01,725633333333.333
1972-04-01,743800000000
1972-07-01,768833333333.3341
1972-10-01,794366666666.667
1973-01-01,813233333333.333
1973-04-01,826600000000
1973-07-01,838200000000
1973-10-01,849000000000
1974-01-01,864666666666.6659
1974-04-01,875100000000
1974-07-01,884466666666.666
1974-10-01,898000000000
1975-01-01,915133333333.333
1975-04-01,948666666666.6659
1975-07-01,983233333333.333
1975-10-01,1006966666666.67
1976-01-01,1038966666666.6702
1976-04-01,1070166666666.6699
1976-07-01,1098599999999.9999
1976-10-01,1138400000000
1977-01-01,1177100000000
1977-04-01,1208800000000
1977-07-01,1236633333333.33
1977-10-01,1262233333333.3298
1978-01-01,1285800000000
1978-04-01,1309800000000
1978-07-01,1334200000000
1978-10-01,1359133333333.33
1979-01-01,1379066666666.67
1979-04-01,1411766666666.6702
1979-07-01,1445166666666.67
1979-10-01,1466666666666.67
1980-01-01,1492366666666.67
1980-04-01,1514566666666.67
1980-07-01,1560333333333.33
1980-10-01,1593466666666.6702
1981-01-01,1620733333333.3298
1981-04-01,1664566666666.67
1981-07-01,1694066666666.67
1981-10-01,1737800000000
1982-01-01,1777133333333.33
1982-04-01,1815100000000
1982-07-01,1845033333333.3298
1982-10-01,1886433333333.33
1983-01-01,1990466666666.6702
1983-04-01,2041733333333.3298
1983-07-01,2074000000000.0
1983-10-01,2111666666666.6702
1984-01-01,2157199999999.9998
1984-04-01,2203633333333.33
1984-07-01,2232766666666.67
1984-10-01,2282233333333.33
1985-01-01,2350900000000.0
1985-04-01,2392500000000.0
1985-07-01,2443300000000.0
1985-10-01,2479300000000.0
1986-01-01,2516033333333.33
1986-04-01,2582533333333.33
1986-07-01,2646966666666.67
1986-10-01,2705566666666.67
1987-01-01,2748366666666.67
1987-04-01,2771733333333.33
1987-07-01,2788900000000.0
1987-10-01,2820033333333.33
1988-01-01,2869500000000.0
1988-04-01,2925033333333.33
1988-07-01,2952033333333.33
1988-10-01,2977900000000.0
1989-01-01,2994533333333.33
1989-04-01,3015166666666.67
1989-07-01,3073100000000.0
1989-10-01,3133300000000.0
1990-01-01,3178700000000.0
1990-04-01,3205300000000.0
1990-07-01,3240366666666.67
1990-10-01,3264566666666.67
1991-01-01,3304700000000.0
1991-04-01,3342433333333.33
1991-07-01,3355333333333.33
1991-10-01,3365933333333.33
1992-01-01,3395033333333.33
1992-04-01,3397233333333.33
1992-07-01,3401000000000.0
1992-10-01,3425000000000.0
1993-01-01,3415100000000.0
1993-04-01,3430200000000.0
1993-07-01,3446633333333.33
1993-10-01,3467100000000.0
1994-01-01,3476900000000.0
1994-04-01,3483866666666.67
1994-07-01,3486666666666.67
1994-10-01,3485966666666.67
1995-01-01,3491133333333.33
1995-04-01,3524100000000.0
1995-07-01,3586166666666.67
1995-10-01,3620933333333.33
1996-01-01,3665566666666.67
1996-04-01,3709966666666.67
1996-07-01,3744933333333.33
1996-10-01,3795600000000.0
1997-01-01,3847466666666.67
1997-04-01,3891033333333.33
1997-07-01,3951766666666.67
1997-10-01,4013733333333.33
1998-01-01,4086866666666.67
1998-04-01,4163333333333.33
1998-07-01,4233966666666.67
1998-10-01,4343766666666.67
1999-01-01,4420666666666.67
1999-04-01,4485066666666.67
1999-07-01,4552000000000.0
1999-10-01,4614033333333.33
2000-01-01,4685933333333.33
2000-04-01,4764600000000.0
2000-07-01,4820633333333.329
2000-10-01,4891833333333.33
2001-01-01,5020600000000.0
2001-04-01,5147333333333.33
2001-07-01,5262833333333.33
2001-10-01,5383566666666.67
2002-01-01,5477466666666.67
2002-04-01,5521233333333.33
2002-07-01,5625600000000.0
2002-10-01,5741100000000.0
2003-01-01,5835566666666.67
2003-04-01,5951300000000.0
2003-07-01,6072000000000.0
2003-10-01,6066466666666.67
2004-01-01,6113266666666.67
2004-04-01,6243066666666.67
2004-07-01,6312866666666.671
2004-10-01,6396733333333.33
2005-01-01,6432700000000.0
2005-04-01,6478100000000.0
2005-07-01,6570300000000.0
2005-10-01,6657933333333.33
2006-01-01,6744600000000.0
2006-04-01,6816766666666.67
2006-07-01,6915366666666.671
2006-10-01,7030366666666.671
2007-01-01,7130333333333.33
2007-04-01,7250766666666.67
2007-07-01,7364833333333.33
2007-10-01,7442733333333.33
2008-01-01,7583200000000.0
2008-04-01,7712100000000.0
2008-07-01,7807500000000.0
2008-10-01,8059733333333.33
2009-01-01,8316733333333.33
2009-04-01,8415333333333.33
2009-07-01,8445266666666.67
2009-10-01,8489833333333.33
2010-01-01,8490633333333.329
2010-04-01,8578733333333.33
2010-07-01,8663266666666.67
2010-10-01,8774166666666.67
2011-01-01,8884533333333.34
2011-04-01,9077233333333.33
2011-07-01,9451766666666.67
2011-10-01,9613200000000.0
2012-01-01,9790100000000.0
2012-04-01,9945000000000.0
2012-07-01,10125433333333.299
2012-10-01,10346933333333.299
2013-01-01,10511133333333.3
2013-04-01,10637733333333.3
2013-07-01,10785966666666.7
2013-10-01,10977700000000.0
2014-01-01,11154433333333.299
2014-04-01,11324366666666.7
2014-07-01,11468033333333.3
2014-10-01,11612600000000.0
2015-01-01,11838133333333.3
2015-04-01,11966333333333.299
2015-07-01,12106366666666.7
2015-10-01,12273900000000.0
2016-01-01,12551300000000.0
2016-04-01,12768400000000.0
2016-07-01,12966766666666.7
2016-10-01,13168700000000.0
2017-01-01,13365466666666.7
2017-04-01,13536166666666.701
2017-07-01,13674633333333.3
2017-10-01,13812166666666.701
2018-01-01,13923300000000.0
2018-04-01,14068800000000.0
2018-07-01,14197866666666.7
2018-10-01,14291733333333.3
2019-01-01,14491100000000.0
2019-04-01,14678800000000.0
2019-07-01,14943666666666.701
2019-10-01,15246733333333.3
2020-01-01,15632566666666.701
2020-04-01,17705166666666.7
2020-07-01,18435600000000.0
2020-10-01,18947566666666.7
2021-01-01,19659466666666.7
2021-04-01,20293566666666.7
